Weather History for Eagle, AK

Change the Weather History Date:

Thursday, October 10, 2013

  Actual Average (PABN) Record (PABN)
Temperature  
Mean Temperature 32 °F -  
Max Temperature 39 °F 29 °F 55 °F (2006)
Min Temperature 25 °F 18 °F 14 °F (2002)
Degree Days  
Heating Degree Days 33    
Moisture  
Dew Point 29 °F    
Average Humidity 89    
Maximum Humidity 100    
Minimum Humidity 63    
Precipitation  
Precipitation 0.00 in - - ()
Sea Level Pressure  
Sea Level Pressure 29.69 in    
Wind  
Wind Speed 1 mph (SE)    
Max Wind Speed 7 mph    
Max Gust Speed -    
Visibility 8 miles    
Events Fog    
Averages and records for this station are not official NWS values.
T = Trace of Precipitation, MM = Missing Value Source: NWS Daily Summary

Daily Weather History Graph

Daily Weather History Graph

Search for Another Location

Airport:

Trip Planner

Search our weather history database for the weather conditions in past years. The results will help you decide how hot, cold, wet, or windy it might be!

Date:

Astronomy

Oct. 10, 2013 Rise Set
Actual Time 8:02 AM AKDT 6:18 PM AKDT
Civil Twilight 7:13 AM AKDT 7:07 PM AKDT
Nautical Twilight 6:16 AM AKDT 8:04 PM AKDT
Astronomical Twilight 5:17 AM AKDT 9:02 PM AKDT
Moon 3:34 PM AKDT (10/10) 9:36 PM AKDT (10/10)
Length of Visible Light 11h 54m
Length of Day
10h 16m
Waxing Crescent, 37% of the Moon is Illuminated
Oct 10
Waxing Crescent
Oct 11
First Quarter
Oct 18
Full
Oct 26
Last Quarter
Nov 3
New

Hourly Weather History & Observations

Time (AKDT) Temp. Windchill Dew Point Humidity Pressure Visibility Wind Dir Wind Speed Gust Speed Precip Events Conditions
12:53 AM 33.1 °F - 32.0 °F 96% 29.61 in 10.0 mi Calm Calm - 0.00 in   Overcast
1:53 AM 32.0 °F - 30.9 °F 96% 29.63 in 10.0 mi Calm Calm - N/A   Overcast
2:37 AM 30.2 °F - 30.2 °F 100% 29.62 in 10.0 mi Calm Calm - N/A   Overcast
2:51 AM 30.2 °F - 30.2 °F 100% 29.62 in 10.0 mi Calm Calm - N/A   Overcast
2:53 AM 30.9 °F - 30.0 °F 96% 29.65 in 10.0 mi Calm Calm - N/A   Overcast
3:24 AM 32.0 °F - 30.2 °F 93% 29.63 in 1.8 mi Calm Calm - N/A   Overcast
3:39 AM 32.0 °F - 30.2 °F 93% 29.64 in 0.8 mi Calm Calm - N/A   Overcast
3:53 AM 32.0 °F - 30.9 °F 96% 29.67 in 1.5 mi Calm Calm - N/A   Overcast
4:08 AM 32.0 °F - 30.2 °F 93% 29.64 in 0.5 mi Calm Calm - N/A Fog Fog
4:53 AM 30.9 °F - 30.9 °F 100% 29.68 in 0.8 mi Calm Calm - N/A   Overcast
5:01 AM 30.2 °F - 30.2 °F 100% 29.66 in 1.8 mi Calm Calm - N/A   Overcast
5:21 AM 30.2 °F - 30.2 °F 100% 29.66 in 2.5 mi Calm Calm - N/A   Overcast
5:28 AM 30.2 °F - 30.2 °F 100% 29.66 in 9.0 mi Calm Calm - N/A   Overcast
5:53 AM 30.0 °F - 28.9 °F 96% 29.70 in 10.0 mi Calm Calm - N/A   Overcast
6:37 AM 30.2 °F - 28.4 °F 93% 29.67 in 10.0 mi Calm Calm - N/A   Overcast
6:53 AM 28.9 °F - 28.0 °F 96% 29.71 in 10.0 mi Calm Calm - N/A   Overcast
7:53 AM 30.0 °F - 28.0 °F 92% 29.71 in 10.0 mi Calm Calm - N/A   Overcast
8:53 AM 30.0 °F - 28.9 °F 96% 29.72 in 10.0 mi Calm Calm - N/A   Overcast
9:53 AM 32.0 °F - 30.0 °F 92% 29.73 in 10.0 mi Calm Calm - N/A   Overcast
10:53 AM 34.0 °F - 30.9 °F 89% 29.74 in 10.0 mi Calm Calm - N/A   Clear
11:53 AM 37.0 °F 32.4 °F 30.0 °F 76% 29.74 in 10.0 mi SE 5.8 mph - N/A   Clear
12:53 PM 39.0 °F 36.8 °F 30.9 °F 73% 29.73 in 10.0 mi Variable 3.5 mph - N/A   Clear
1:53 PM 39.0 °F 34.0 °F 28.9 °F 67% 29.73 in 10.0 mi ESE 6.9 mph - N/A   Clear
2:53 PM 39.9 °F 35.8 °F 28.0 °F 63% 29.72 in 10.0 mi SSE 5.8 mph - N/A   Clear
3:53 PM 39.0 °F 35.7 °F 28.0 °F 65% 29.71 in 10.0 mi SE 4.6 mph - N/A   Clear
4:53 PM 39.0 °F 36.8 °F 28.0 °F 65% 29.70 in 10.0 mi Variable 3.5 mph - N/A   Clear
5:53 PM 35.1 °F - 28.9 °F 78% 29.70 in 10.0 mi Calm Calm - N/A   Clear
6:53 PM 28.9 °F - 26.1 °F 89% 29.72 in 10.0 mi Calm Calm - N/A   Clear
7:53 PM 30.0 °F - 26.1 °F 85% 29.72 in 10.0 mi Calm Calm - N/A   Clear
8:53 PM 28.9 °F - 25.0 °F 85% 29.73 in 10.0 mi Calm Calm - N/A   Clear
9:53 PM 27.0 °F - 25.0 °F 92% 29.73 in 10.0 mi Calm Calm - N/A   Clear
10:53 PM 25.0 °F - 23.0 °F 92% 29.74 in 10.0 mi Calm Calm - N/A   Clear
11:53 PM 26.1 °F - 23.0 °F 88% 29.75 in 10.0 mi Calm Calm - N/A   Clear